TimeEST,TemperatureF,Dew PointF,Humidity,Sea Level PressureIn,VisibilityMPH,Wind Direction,Wind SpeedMPH,Gust SpeedMPH,PrecipitationIn,Events,Conditions,WindDirDegrees,DateUTC
12:15 AM,26.2,22.5,86,30.48,10.0,Calm,Calm,-,N/A,,Clear,0,2013-11-14 05:15:00
12:35 AM,25.5,22.8,89,30.48,10.0,Calm,Calm,-,N/A,,Clear,0,2013-11-14 05:35:00
12:55 AM,24.4,22.1,91,30.47,10.0,Calm,Calm,-,N/A,,Clear,0,2013-11-14 05:55:00
1:15 AM,25.0,22.1,89,30.47,10.0,Calm,Calm,-,N/A,,Clear,0,2013-11-14 06:15:00
1:35 AM,24.8,22.5,91,30.47,10.0,Calm,Calm,-,N/A,,Clear,0,2013-11-14 06:35:00
1:55 AM,24.3,22.1,91,30.46,10.0,Calm,Calm,-,N/A,,Clear,0,2013-11-14 06:55:00
2:15 AM,23.9,21.6,91,30.46,10.0,Calm,Calm,-,N/A,,Clear,0,2013-11-14 07:15:00
2:35 AM,23.9,22.1,93,30.46,10.0,Calm,Calm,-,N/A,,Clear,0,2013-11-14 07:35:00
2:55 AM,23.5,21.9,94,30.45,10.0,Calm,Calm,-,N/A,,Clear,0,2013-11-14 07:55:00
3:15 AM,23.9,21.6,91,30.45,10.0,Calm,Calm,-,N/A,,Clear,0,2013-11-14 08:15:00
3:35 AM,24.4,22.3,91,30.45,10.0,Calm,Calm,-,N/A,,Clear,0,2013-11-14 08:35:00
3:55 AM,24.4,22.1,91,30.45,10.0,Calm,Calm,-,N/A,,Clear,0,2013-11-14 08:55:00
4:15 AM,23.5,21.9,94,30.45,10.0,Calm,Calm,-,N/A,,Clear,0,2013-11-14 09:15:00
4:35 AM,23.4,21.6,93,30.45,10.0,Calm,Calm,-,N/A,,Clear,0,2013-11-14 09:35:00
4:55 AM,23.7,21.7,92,30.45,10.0,Calm,Calm,-,N/A,,Clear,0,2013-11-14 09:55:00
5:15 AM,24.1,21.7,91,30.45,10.0,Calm,Calm,-,N/A,,Clear,0,2013-11-14 10:15:00
5:35 AM,23.9,22.1,93,30.45,10.0,Calm,Calm,-,N/A,,Clear,0,2013-11-14 10:35:00
5:55 AM,22.3,20.5,93,30.45,10.0,Calm,Calm,-,N/A,,Clear,0,2013-11-14 10:55:00
6:15 AM,22.5,20.8,93,30.45,10.0,Calm,Calm,-,N/A,,Clear,0,2013-11-14 11:15:00
6:35 AM,21.9,20.8,96,30.46,10.0,Calm,Calm,-,N/A,,Clear,0,2013-11-14 11:35:00
6:55 AM,21.9,20.5,94,30.46,10.0,Calm,Calm,-,N/A,,Clear,0,2013-11-14 11:55:00
7:15 AM,21.6,20.3,95,30.47,10.0,Calm,Calm,-,N/A,,Clear,0,2013-11-14 12:15:00
7:35 AM,23.0,21.4,94,30.47,10.0,Calm,Calm,-,N/A,,Clear,0,2013-11-14 12:35:00
7:55 AM,25.5,24.1,94,30.48,10.0,Calm,Calm,-,N/A,,Clear,0,2013-11-14 12:55:00
8:15 AM,28.4,25.3,88,30.48,10.0,Calm,Calm,-,N/A,,Clear,0,2013-11-14 13:15:00
8:35 AM,32.0,24.3,73,30.48,10.0,SW,3.5,-,N/A,,Clear,220,2013-11-14 13:35:00
8:55 AM,34.2,25.0,69,30.48,10.0,SSW,3.5,-,N/A,,Clear,210,2013-11-14 13:55:00
9:15 AM,36.7,24.3,61,30.48,10.0,WSW,4.6,-,N/A,,Clear,240,2013-11-14 14:15:00
9:35 AM,39.6,23.0,52,30.48,10.0,SSW,3.5,-,N/A,,Clear,210,2013-11-14 14:35:00
9:55 AM,42.4,22.5,45,30.48,10.0,SW,5.8,-,N/A,,Clear,220,2013-11-14 14:55:00
10:15 AM,44.4,20.5,39,30.48,10.0,SW,6.9,-,N/A,,Clear,230,2013-11-14 15:15:00
10:35 AM,46.6,20.7,36,30.47,10.0,SSW,6.9,-,N/A,,Clear,210,2013-11-14 15:35:00
10:55 AM,48.2,20.7,34,30.47,10.0,WSW,6.9,-,N/A,,Clear,250,2013-11-14 15:55:00
11:15 AM,49.1,19.8,31,30.47,10.0,WSW,9.2,-,N/A,,Clear,240,2013-11-14 16:15:00
11:35 AM,51.1,21.2,31,30.46,10.0,SW,6.9,-,N/A,,Clear,230,2013-11-14 16:35:00
11:55 AM,51.4,20.3,29,30.45,10.0,SW,6.9,-,N/A,,Clear,220,2013-11-14 16:55:00
12:15 PM,52.7,20.8,29,30.43,10.0,West,9.2,-,N/A,,Clear,260,2013-11-14 17:15:00
12:35 PM,53.6,20.8,28,30.42,10.0,SW,10.4,-,N/A,,Clear,230,2013-11-14 17:35:00
12:55 PM,54.5,21.0,27,30.41,10.0,South,5.8,-,N/A,,Clear,190,2013-11-14 17:55:00
1:15 PM,55.2,19.0,24,30.40,10.0,WSW,10.4,-,N/A,,Clear,250,2013-11-14 18:15:00
1:35 PM,55.6,20.1,25,30.40,10.0,SSW,8.1,-,N/A,,Clear,210,2013-11-14 18:35:00
1:55 PM,55.6,18.9,24,30.38,10.0,WSW,6.9,-,N/A,,Clear,250,2013-11-14 18:55:00
2:15 PM,56.5,19.9,24,30.38,10.0,SSW,9.2,-,N/A,,Clear,200,2013-11-14 19:15:00
2:35 PM,56.5,19.6,24,30.37,10.0,SSW,9.2,-,N/A,,Clear,200,2013-11-14 19:35:00
2:55 PM,57.2,19.6,23,30.37,10.0,SW,6.9,-,N/A,,Clear,220,2013-11-14 19:55:00
3:15 PM,57.2,20.1,24,30.37,10.0,SSW,5.8,-,N/A,,Clear,210,2013-11-14 20:15:00
3:35 PM,57.2,21.2,25,30.37,10.0,SW,6.9,-,N/A,,Clear,220,2013-11-14 20:35:00
3:55 PM,57.2,21.6,25,30.37,10.0,South,5.8,-,N/A,,Clear,190,2013-11-14 20:55:00
4:15 PM,56.3,21.4,26,30.37,10.0,SSW,5.8,-,N/A,,Clear,200,2013-11-14 21:15:00
4:35 PM,55.4,20.8,26,30.36,10.0,South,3.5,-,N/A,,Clear,180,2013-11-14 21:35:00
4:55 PM,53.6,21.7,29,30.35,10.0,Calm,Calm,-,N/A,,Clear,0,2013-11-14 21:55:00
5:15 PM,51.1,23.4,34,30.35,10.0,Calm,Calm,-,N/A,,Clear,0,2013-11-14 22:15:00
5:35 PM,46.6,27.0,46,30.35,10.0,Calm,Calm,-,N/A,,Clear,0,2013-11-14 22:35:00
5:55 PM,44.4,27.1,51,30.36,10.0,Calm,Calm,-,N/A,,Clear,0,2013-11-14 22:55:00
6:15 PM,40.5,28.8,63,30.36,10.0,Calm,Calm,-,N/A,,Clear,0,2013-11-14 23:15:00
6:35 PM,40.1,27.9,62,30.36,10.0,Calm,Calm,-,N/A,,Clear,0,2013-11-14 23:35:00
6:55 PM,38.7,28.6,67,30.35,10.0,Calm,Calm,-,N/A,,Clear,0,2013-11-14 23:55:00
7:15 PM,37.0,28.6,71,30.35,10.0,Calm,Calm,-,N/A,,Clear,0,2013-11-15 00:15:00
7:35 PM,36.1,27.3,70,30.35,10.0,Calm,Calm,-,N/A,,Clear,0,2013-11-15 00:35:00
7:55 PM,34.7,28.0,77,30.35,10.0,Calm,Calm,-,N/A,,Clear,0,2013-11-15 00:55:00
8:15 PM,34.2,27.9,78,30.36,10.0,Calm,Calm,-,N/A,,Clear,0,2013-11-15 01:15:00
8:35 PM,33.1,27.5,80,30.36,10.0,Calm,Calm,-,N/A,,Clear,0,2013-11-15 01:35:00
8:55 PM,32.9,27.1,79,30.36,10.0,Calm,Calm,-,N/A,,Clear,0,2013-11-15 01:55:00
9:15 PM,32.0,28.0,85,30.36,10.0,Calm,Calm,-,N/A,,Clear,0,2013-11-15 02:15:00
9:35 PM,30.9,26.4,83,30.35,10.0,Calm,Calm,-,N/A,,Clear,0,2013-11-15 02:35:00
9:55 PM,31.1,27.3,86,30.36,10.0,Calm,Calm,-,N/A,,Clear,0,2013-11-15 02:55:00
10:15 PM,30.2,26.6,86,30.36,10.0,Calm,Calm,-,N/A,,Clear,0,2013-11-15 03:15:00
10:35 PM,29.8,26.4,87,30.36,10.0,Calm,Calm,-,N/A,,Clear,0,2013-11-15 03:35:00
10:55 PM,29.3,25.7,86,30.36,10.0,Calm,Calm,-,N/A,,Clear,0,2013-11-15 03:55:00
11:15 PM,28.4,26.1,91,30.36,10.0,Calm,Calm,-,N/A,,Clear,0,2013-11-15 04:15:00
11:35 PM,28.4,25.9,90,30.36,10.0,Calm,Calm,-,N/A,,Clear,0,2013-11-15 04:35:00
11:55 PM,28.0,25.9,92,30.36,10.0,Calm,Calm,-,N/A,,Clear,0,2013-11-15 04:55:00